| time (UTC) | temp F | wind direction | speed MPH | gust MPH | rain 1hr in | rain 24hr in | rain mn in | humidity % | barometer mb |
| 20260504044531 | 57 | 82 | 1.0 | 3.0 | 0.00 | 0.00 | 0.00 | 60 | 1002.8 |
| 20260504043042 | 57 | 0 | 0.0 | 3.0 | 0.00 | 0.00 | 0.00 | 60 | 1002.9 |
| 20260504041535 | 57 | 0 | 0.0 | 1.0 | 0.00 | 0.00 | 0.00 | 60 | 1003.1 |
| 20260504040030 | 57 | 0 | 0.0 | 1.0 | 0.00 | 0.00 | 0.00 | 60 | 1003.2 |
| 20260504034530 | 57 | 0 | 0.0 | 1.0 | 0.00 | 0.00 | 0.00 | 58 | 1003.4 |
| 20260504033031 | 58 | 254 | 0.0 | 1.0 | 0.00 | 0.00 | 0.00 | 57 | 1003.5 |
| 20260504031530 | 59 | 253 | 0.0 | 1.0 | 0.00 | 0.00 | 0.00 | 57 | 1003.6 |
| 20260504030030 | 60 | 0 | 0.0 | 1.0 | 0.00 | 0.00 | 0.00 | 54 | 1003.7 |
| 20260504024529 | 61 | 233 | 0.0 | 2.0 | 0.00 | 0.00 | 0.00 | 50 | 1003.6 |
| 20260504023031 | 62 | 0 | 0.0 | 2.0 | 0.00 | 0.00 | 0.00 | 50 | 1003.8 |
| 20260504021527 | 63 | 262 | 1.0 | 2.0 | 0.00 | 0.00 | 0.00 | 49 | 1003.9 |
| 20260504020028 | 64 | 262 | 1.0 | 2.0 | 0.00 | 0.00 | 0.00 | 46 | 1003.9 |
| 20260504014537 | 66 | 254 | 0.0 | 1.0 | 0.00 | 0.00 | 0.00 | 42 | 1004.1 |
| 20260504013029 | 68 | 243 | 0.0 | 1.0 | 0.00 | 0.00 | 0.00 | 40 | 1004.2 |
| 20260504011529 | 69 | 0 | 0.0 | 2.0 | 0.00 | 0.00 | 0.00 | 37 | 1004.5 |
| 20260504010028 | 69 | 0 | 0.0 | 1.0 | 0.00 | 0.00 | 0.00 | 38 | 1004.7 |
| 20260504004528 | 70 | 138 | 0.0 | 1.0 | 0.00 | 0.00 | 0.00 | 36 | 1004.9 |
| 20260504003033 | 70 | 97 | 0.0 | 2.0 | 0.00 | 0.00 | 0.00 | 34 | 1005.2 |
| 20260504001536 | 70 | 0 | 0.0 | 1.0 | 0.00 | 0.00 | 0.00 | 36 | 1005.4 |
| 20260504000031 | 70 | 0 | 0.0 | 2.0 | 0.00 | 0.00 | 0.00 | 35 | 1005.7 |
| 20260503234531 | 70 | 0 | 0.0 | 3.0 | 0.00 | 0.00 | 0.00 | 33 | 1006.1 |
| 20260503233029 | 71 | 0 | 0.0 | 8.0 | 0.00 | 0.00 | 0.00 | 34 | 1006.4 |
| 20260503231530 | 71 | 0 | 0.0 | 3.0 | 0.00 | 0.00 | 0.00 | 32 | 1006.6 |
| 20260503230034 | 70 | 240 | 0.0 | 3.0 | 0.00 | 0.00 | 0.00 | 32 | 1006.9 |
| 20260503224534 | 70 | 51 | 0.0 | 3.0 | 0.00 | 0.00 | 0.00 | 33 | 1007.1 |
| 20260503223029 | 70 | 0 | 0.0 | 3.0 | 0.00 | 0.00 | 0.00 | 33 | 1007.4 |
| 20260503221527 | 71 | 57 | 0.0 | 3.0 | 0.00 | 0.00 | 0.00 | 32 | 1007.7 |
| 20260503220031 | 72 | 0 | 0.0 | 1.0 | 0.00 | 0.00 | 0.00 | 32 | 1007.9 |
| 20260503214529 | 72 | 0 | 0.0 | 3.0 | 0.00 | 0.00 | 0.00 | 33 | 1008.1 |
| 20260503213030 | 73 | 302 | 1.0 | 3.0 | 0.00 | 0.00 | 0.00 | 32 | 1008.3 |
| 20260503211529 | 75 | 0 | 0.0 | 4.0 | 0.00 | 0.00 | 0.00 | 29 | 1008.8 |
| 20260503210033 | 73 | 33 | 0.0 | 2.0 | 0.00 | 0.00 | 0.00 | 34 | 1009.1 |
| 20260503204529 | 74 | 143 | 0.0 | 3.0 | 0.00 | 0.00 | 0.00 | 32 | 1009.3 |
| 20260503203032 | 74 | 15 | 1.0 | 4.0 | 0.00 | 0.00 | 0.00 | 31 | 1009.7 |
| 20260503201528 | 75 | 353 | 0.0 | 4.0 | 0.00 | 0.00 | 0.00 | 30 | 1010.2 |
| 20260503200028 | 74 | 62 | 0.0 | 3.0 | 0.00 | 0.00 | 0.00 | 33 | 1010.4 |
| 20260503194533 | 73 | 43 | 0.0 | 3.0 | 0.00 | 0.00 | 0.00 | 32 | 1010.9 |
| 20260503193032 | 73 | 342 | 2.0 | 4.0 | 0.00 | 0.00 | 0.00 | 29 | 1011.0 |
| 20260503191536 | 74 | 301 | 0.0 | 4.0 | 0.00 | 0.00 | 0.00 | 30 | 1011.3 |
| 20260503190030 | 73 | 55 | 1.0 | 3.0 | 0.00 | 0.00 | 0.00 | 32 | 1011.7 |
| 20260503184530 | 72 | 0 | 1.0 | 4.0 | 0.00 | 0.00 | 0.00 | 30 | 1012.1 |
| 20260503183032 | 71 | 278 | 1.0 | 4.0 | 0.00 | 0.00 | 0.00 | 31 | 1012.7 |
| 20260503181530 | 71 | 274 | 0.0 | 3.0 | 0.00 | 0.00 | 0.00 | 31 | 1013.0 |
| 20260503180042 | 71 | 8 | 1.0 | 4.0 | 0.00 | 0.00 | 0.00 | 31 | 1013.2 |
| 20260503174529 | 71 | 113 | 0.0 | 3.0 | 0.00 | 0.00 | 0.00 | 32 | 1013.5 |
| 20260503173030 | 70 | 275 | 1.0 | 5.0 | 0.00 | 0.00 | 0.00 | 32 | 1013.9 |
| 20260503171531 | 69 | 0 | 1.0 | 5.0 | 0.00 | 0.00 | 0.00 | 34 | 1014.0 |
| 20260503081527 | 49 | 0 | 0.0 | 0.0 | 0.00 | 0.00 | 0.00 | 67 | 1012.0 |
| 20260503071528 | 50 | 0 | 0.0 | 0.0 | 0.00 | 0.00 | 0.00 | 65 | 1011.5 |